Regional Weather Roundup
Issued by NWS

Home | Current Version | Previous Version | Graphics & Text | Print | Product List | Glossary On
Versions: 1 2 3 4 5 6 7 8 9 10 11 12 13 14 15 16 17 18 19 20 21 22 23 24 25 26 27
000
ASUS45 KSLC 032310
RWRUT

UTAH REGIONAL WEATHER ROUNDUP
NATIONAL WEATHER SERVICE SALT LAKE CITY UT
400 PM MST SAT DEC 03 2016

UTZ001>011-023>025-040000-

NORTHERN UTAH

CITY           SKY/WX    TMP DP  RH WIND       PRES   REMARKS
BRIGHAM CITY     N/A     35  20  54 S5        30.26F WCI  30
HILL AFB       CLOUDY    30  22  72 SE3       30.25R
LOGAN          CLOUDY   N/A N/A N/A S7        30.24S
OGDEN          CLOUDY    33  21  61 S7        30.25S WCI  27
SALT LAKE CITY MOCLDY    35  20  54 S7        30.26S WCI  29
TOOELE VALLEY  CLOUDY    36  27  69 E5        30.26S WCI  32
WENDOVER       CLEAR     39  12  33 S3        30.24S
HEBER CITY     MOCLDY    30  18  59 CALM      30.21S
WEST JORDAN    CLOUDY    32  25  76 S5        30.27R WCI  27

$$

UTZ011>015-024>027-040000-

CENTRAL/NORTHEAST UTAH

CITY           SKY/WX    TMP DP  RH WIND       PRES   REMARKS
PROVO AIRPORT  CLOUDY    31  21  66 NW3       30.28R
MOAB/CANYONLAN CLEAR     40   8  26 W5        30.13F
DELTA          CLEAR     34  18  51 CALM      30.26R
PRICE          CLEAR     36  12  37 NW18G28   30.13R WCI  26
ROOSEVELT      CLEAR     34  14  44 E7        30.17R WCI  28
VERNAL         CLEAR     33  13  43 E3        30.16R

$$

UTZ013>016-019>022-027-040000-

SOUTHERN UTAH

CITY           SKY/WX    TMP DP  RH WIND       PRES   REMARKS
BRYCE CANYON   NOT AVBL
CEDAR CITY     SUNNY     42  10  27 N8        30.17S
MILFORD        SUNNY     39   9  29 N14       30.22S WCI  31
ST GEORGE      MOCLDY    48  16  27 W5        30.18S
HANKSVILLE     CLEAR     41  10  28 CALM      30.16F
BLANDING       CLEAR     41   9  26 NW13      30.14S

$$

REGIONAL REPORTS     COLORADO/ARIZONA

CITY           SKY/WX    TMP DP  RH WIND       PRES   REMARKS
CRAIG, CO      CLOUDY    29  12  49 CALM      30.13R
GRAND JUNCTION CLEAR     37  18  46 NW5       30.14S WCI  33
RIFLE, CO      CLOUDY    33  17  51 CALM      30.15R
MONTROSE, CO   CLEAR     35  16  45 CALM      30.15S
CORTEZ, CO     CLEAR     40  11  30 NW15      30.08R WCI  32
COLORADO CITY    N/A     46  14  27 NW10      30.16S
PAGE, AZ       SUNNY     44   7  21 E3        30.13F
GRAND CANYON   SUNNY     39  11  31 NE9       30.13R WCI  33
KINGMAN, AZ    SUNNY     52   5  15 N14       30.10S
FLAGSTAFF, AZ  SUNNY     40  12  32 NE17G26   30.06S WCI  31

$$

REGIONAL REPORTS    NEVADA/IDAHO/WYOMING

CITY           SKY/WX    TMP DP  RH WIND       PRES   REMARKS
LAS VEGAS, NV  MOSUNNY   57   4  12 E3        30.14F
ELY, NY        SUNNY     40  16  37 N9        30.23R WCI  34
ELKO, NV       SUNNY     38  15  39 W10       30.26F WCI  31
POCATELLO, ID  CLOUDY    33  24  69 S12       30.20R WCI  24
BURLEY, ID     MOCLDY    38  27  64 W12       30.19R WCI  30
FORT BRIDGER,  FLURRIES  26  17  69 W25G32    30.15F WCI  11
EVANSTON, WY   CLOUDY    24  13  62 W18       30.15S WCI  10
ROCK SPRINGS,  PTCLDY    25  16  68 W21G32    30.08S WCI  11

$$




USA.gov is the U.S. government's official web portal to all federal, state and local government web resources and services.